STARLINK-35489

Last updated on Mon Oct 20 2025 00:02:07 GMT+0000 (Coordinated Universal Time)

1 65857U 25223D 25292.25002315 -.01906620 00000+0 -21789-1 0 9996 2 65857 53.1596 235.0031 0001154 88.1180 9.1421 15.64689761 3736
UTC large
Height (km)
Speed (km/s)
/
Latitude / Longitude
Inclination (degrees)
Orbital Period (minutes)
Azimuth
Elevation
Range (km)
Doppler Factor

Next 0 passes for location: London (51.5072 / 0.1276)

Sorry there are no passes over London.